Find Starlink 5546

NORAD ID: 55632 Int'l Des: 2023-021 Owner: SPXS Country: US Constellation: starlink operational
LEOCIRCULAR

实时位置

正在加载3D地球...

关于 Starlink 5546

正在加载描述...

即将过境

Passes for default location (London). Set your location on the main map for personalized predictions.

高度历史

Loading altitude history...

两行轨道根数

1 55632U 23021E 26121.86845823 .00000378 00000-0 39447-4 0 9994
2 55632 69.9999 70.3821 0002900 267.7254 92.3573 14.98329105176262
Epoch: May 1, 2026 • Age: 11 hours

当前状态

高度 591.6 km
速度 7.56 km/s
星下点 -56.82°S, 50.41°W
发射日期 Feb 17, 2023
运行时间 3.2 years
类型 internet

技术详情

分类 Payload
质量 305.00 kg
干质量 290.00 kg
总质量 305.00 kg
长度 0.20 m
直径 2.80 m
跨度 9.00 m
形状 Box + pan
制造商 SPXS
平台类型 Starlink
阶段状态 In Orbit
所有者/国家 SPXS/US

Most Searched